Content
SEND FEEDBACK

Daily
Averages
Monthly
Summary
United States of America

SAN LUIS REY, CALIFORNIA


Home > North America > United States > California
Elevation: 6 feet     Latitude: 33 13N     Longitude: 117 24W

WEATHER
 
SELECT A DAY
Number of Records: 166,406;   Date Range: 5/12/99 - 7/26/14
 
SHARE

PRINT THIS DATA

[ ← Previous Day ]
WEATHER ALMANAC - FEBRUARY 16, 2013
[ Next Day → ]
[ °C ]   °F
Weather ElementAverageHighLow
Temperature59 °F80.1 °F (11:52 am)41 °F (11:52 pm)
Dewpoint28 °F45 °F (10:52 am)19.9 °F (4:52 pm)
Humidity34.5 %65 % (11:52 pm)14 % (2:52 pm)
Barometer30.05 in30.14 in (7:52 am)29.97 in (4:52 pm)
Wind Speed3.7 mph15 mph (1:52 pm)
Wind Gust19.6 mph (1:52 pm)
Weather ElementAverage
Visibility10 mi
Wind DirectionESE (101.4 °)

Weather ElementTotal
Precipitation---
Heating Degree Days4.5 (Base 65)
Growing Degree Days10.6 (Base 50)
Averaged from 22 records on February 16, 2013
WEATHER CONDITIONS BREAKOUT
WIND DIRECTION BREAKOUT
WEATHER BY HOUR - FEBRUARY 16, 2013
[ °C ]   °F
Local TimeTemperatureDewpointHumidityBarometerVisibilityWind DirectionWind SpeedGust SpeedPrecipitationEventsConditions
1:52 AM54.0 °F21.9 °F29 %30.12 in10.0 miCalmClear
2:52 AM48.9 °F23.0 °F36 %30.12 in10.0 miCalmClear
4:52 AM46.0 °F25.0 °F44 %30.12 in10.0 miNE (40°)3.5 mphClear
5:52 AM46.9 °F25.0 °F42 %30.12 in10.0 miCalmClear
6:52 AM46.0 °F26.1 °F46 %30.13 in10.0 miNNE (30°)3.5 mphClear
7:52 AM52.0 °F28.0 °F40 %30.14 in10.0 miVariable3.5 mphClear
8:52 AM60.1 °F28.9 °F31 %30.13 in10.0 miNE (50°)3.5 mphClear
9:52 AM66.9 °F30.0 °F25 %30.12 in10.0 miCalmClear
10:52 AM71.1 °F45.0 °F39 %30.10 in10.0 miWest (260°)3.5 mphClear
11:52 AM80.1 °F39.0 °F23 %30.06 in10.0 miSW (220°)10.4 mphClear
12:52 PM75.9 °F28.9 °F18 %30.02 in10.0 miWest (270°)6.9 mphClear
1:52 PM75.0 °F24.1 °F15 %30.00 in10.0 miWest (280°)15.0 mph19.6 mphClear
2:52 PM73.9 °F21.9 °F14 %29.99 in10.0 miWest (260°)10.4 mph17.3 mphClear
3:52 PM72.0 °F26.1 °F18 %29.98 in10.0 miWNW (290°)11.5 mph19.6 mphClear
4:52 PM71.1 °F19.9 °F14 %29.97 in10.0 miWest (280°)6.9 mphClear
5:52 PM66.0 °F24.1 °F20 %29.98 in10.0 miWSW (250°)3.5 mphClear
6:52 PM61.0 °F30.0 °F31 %29.98 in10.0 miCalmClear
7:52 PM53.1 °F28.0 °F38 %29.99 in10.0 miCalmClear
8:52 PM48.0 °F30.9 °F52 %29.99 in10.0 miCalmClear
9:52 PM45.0 °F30.0 °F56 %30.00 in10.0 miCalmClear
10:52 PM43.0 °F30.9 °F62 %29.99 in10.0 miCalmClear
11:52 PM41.0 °F30.0 °F65 %29.99 in10.0 miCalmClear
Hourly data recorded from KOKB, located miles away from San Luis Rey, California







STORIES FROM OUR PARTNERS